[[{"header":{"parameterUnit":"m.s-1","parameterCategory":1,"la1":30.2991,"la2":30.254,"lo1":-89.0895,"lo2":-89.0444,"dy":0.0017,"dx":0.0017,"nx":28,"ny":28,"refTime":"2023-10-05T09:00:00:Z","depth":0,"parameterNumber":2,"parameterNumberName":"U-component_of_WINDS"},"data":[0,0,0,0,0,0,0,0,0,0,0,0,0,0,0,0,0,0,0,0,0,0,0,0,0,0,0,0,0,0,0,0,0,0,0,0,0,0,0,0,0,0,0,0,0,0,0,0,0,0,0,0,0,0,0,0,0,0,2.4581,2.4583,0,2.4702,2.4704,2.4705,2.4681,2.4678,2.4676,2.4674,2.4798,2.4804,2.4809,0,0,0,0,0,0,0,0,0,0,0,0,0,2.433,2.4335,2.4581,2.4583,2.4584,2.4702,2.4704,2.4705,2.4681,2.4678,2.4676,2.4673,2.4797,2.4803,2.4809,0,0,0,0,0,0,0,0,0,0,0,0,0,2.4444,2.4336,2.4581,2.4586,2.4588,2.4702,2.4704,2.4706,2.4682,2.4678,2.4675,2.4672,2.4794,2.4802,2.481,2.4926,0,0,2.4835,2.4838,0,0,0,0,0,0,0,0,2.4437,2.4453,2.4584,2.4586,2.4588,2.4673,2.4661,2.478,2.4682,2.4646,2.4674,2.467,2.4759,2.477,2.48,2.4932,2.4937,2.4836,2.484,2.4844,2.4846,0,0,0,0,0,0,0,2.4429,2.4448,2.4629,2.4586,2.4589,2.4583,2.4595,2.4683,2.472,2.4649,2.4648,2.4662,2.476,2.4792,2.4803,2.4939,2.4835,2.4842,2.4847,2.4851,2.5173,2.5176,0,0,0,0,0,0,2.442,2.4441,2.4625,2.4633,2.4503,2.459,2.4604,2.4649,2.4719,2.4726,2.4665,2.4661,2.478,2.4793,2.4807,2.4947,2.4844,2.4851,2.4856,2.5169,2.5173,2.5177,0,0,0,0,0,0,2.4414,2.4436,2.462,2.4537,2.456,2.4598,2.4649,2.4653,2.4686,2.4731,2.4737,2.4691,2.4778,2.4796,2.4897,2.4951,2.4855,2.4862,2.5164,2.517,2.5175,2.5228,0,0,0,0,0,0,2.4407,2.4434,2.4479,2.4538,2.4564,2.4708,2.4652,2.4658,2.47,2.4695,2.4757,2.4764,2.4777,2.4885,2.4905,2.496,2.4869,2.516,2.5167,2.5174,2.5221,2.5235,2.5246,0,0,0,0,0,2.4398,2.4488,2.4481,2.4503,2.462,2.4711,2.4726,2.4738,2.4704,2.4749,2.4778,2.4762,2.4942,2.4895,2.4918,2.4976,2.5156,2.5165,2.5173,2.5216,2.5232,2.5245,0,0,0,0,0,0,2.4434,2.4496,2.4488,2.46,2.4651,2.4707,2.4763,2.4755,2.4816,2.4809,2.4822,2.4837,2.4939,2.4968,2.4915,2.5092,2.5044,2.5058,2.5069,2.5085,2.5097,2.5087,2.4875,0,0,0,0,0,2.4455,2.4524,2.4574,2.4668,2.4694,2.4725,2.4764,2.477,2.4822,2.4843,2.488,2.4932,2.5,2.5044,2.5109,2.5226,2.5239,2.5278,2.529,2.53,2.531,2.5374,2.5392,2.5205,2.5205,2.5205,0,0,2.4499,2.4541,2.4584,2.4677,2.4716,2.4787,2.4742,2.4819,2.4871,2.4855,2.4952,2.4981,2.504,2.5149,2.5199,2.5176,2.5365,2.531,2.5318,2.5323,2.5384,2.5402,2.5418,2.5211,2.521,2.5209,0,0,2.4615,2.4654,2.4736,2.4777,2.4838,2.4858,2.4878,2.4936,2.4954,2.5052,2.5042,2.5105,2.5222,2.5264,2.5301,2.5434,2.5422,2.5456,2.5518,2.558,2.5595,2.5608,2.5655,2.5672,2.5467,2.5467,2.5467,0,2.4661,2.4767,2.478,2.4858,2.4899,2.4888,2.4972,2.5011,2.509,2.5119,2.5092,2.5239,2.5278,2.5397,2.543,2.546,2.5483,2.5447,2.5592,2.5605,2.5618,2.5662,2.568,2.547,2.547,2.5469,2.5469,0,2.4821,2.4895,2.4955,2.5031,2.5079,2.516,2.5185,2.5232,2.5235,2.5257,2.5358,2.5404,2.5479,2.5508,2.551,2.5627,2.5611,2.5589,2.554,2.5639,2.5681,2.5698,2.5475,2.5474,2.5473,2.5472,0,0,2.496,2.5044,2.5066,2.5101,2.5168,2.5225,2.5306,2.5379,2.5419,2.5474,2.5542,2.5642,2.5621,2.5663,2.5671,2.5726,2.5828,2.5696,2.5698,2.5718,2.5959,2.5974,2.5994,2.5821,2.5824,2.5827,2.5954,0,2.5081,2.5223,2.5237,2.5364,2.5432,2.5424,2.5495,2.5543,2.5568,2.5629,2.5656,2.5727,2.5695,2.572,2.5774,2.5804,2.5876,2.5795,2.5883,2.5886,2.5867,2.6016,2.6033,2.615,2.597,2.5973,2.5975,0,2.524,2.5301,2.5434,2.5492,2.5522,2.5584,2.5653,2.5712,2.5768,2.5782,2.5829,2.583,2.5913,2.5863,2.5978,2.5923,2.596,2.598,2.5985,2.5992,2.5935,2.6026,2.6188,2.6205,2.6002,2.6,2.5998,0,2.5327,2.5442,2.5537,2.5567,2.5638,2.5682,2.5713,2.5766,2.5809,2.5869,2.5897,2.5967,2.6004,2.6058,2.6077,2.6039,2.6191,2.6143,2.6204,2.6204,2.6235,2.6232,2.6403,2.6262,2.6262,2.6261,2.6261,0,2.5459,2.5541,2.5577,2.5635,2.5726,2.5743,2.5833,2.5863,2.591,2.5974,2.5972,2.6031,2.6054,2.6118,2.6134,2.6226,2.6244,2.6257,2.626,2.6256,2.6254,2.6279,2.6271,2.6266,2.6265,2.6264,2.6263,0,2.557,2.5598,2.57,2.5759,2.5776,2.5841,2.5891,2.5948,2.5972,2.6053,2.6073,2.6111,2.6186,2.6211,2.6302,2.6313,2.642,2.6417,2.6401,2.6401,2.646,2.6454,2.6651,2.6678,2.6521,2.6523,2.6524,0,2.5652,2.5714,2.5781,2.5824,2.5857,2.5926,2.597,2.599,2.6036,2.6105,2.6153,2.6228,2.6288,2.6409,2.6444,2.6514,2.6511,2.6576,2.6522,2.6516,2.6511,2.6506,2.6512,2.6585,2.6587,2.6588,2.6589,0,2.5793,2.5804,2.5868,2.5938,2.5991,2.6046,2.61,2.6135,2.6163,2.6215,2.6292,2.6339,2.6433,2.6507,2.6578,2.661,2.6605,2.6607,2.6624,2.662,2.6608,2.6614,2.6427,2.6602,2.66,2.6599,2.6599,2.6598,2.5891,2.5946,2.6002,2.6074,2.6117,2.6167,2.6223,2.6255,2.6319,2.6397,2.6405,2.6488,2.6543,2.6638,2.6674,2.6739,2.6721,2.6747,2.6753,2.6759,2.6762,2.6599,2.6753,2.6752,2.6752,2.6752,2.6752,0,2.6031,2.6067,2.6133,2.6208,2.6265,2.6256,2.6315,2.6363,2.6436,2.6488,2.6548,2.6637,2.6709,2.6751,2.6823,2.6867,2.6866,2.6885,2.6881,2.6889,2.6775,2.6752,2.6885,2.6885,2.6885,2.6885,2.6885,2.6885,2.611,2.6203,2.6221,2.6336,2.6371,2.6452,2.6487,2.6534,2.6575,2.6675,2.6735,2.6762,2.681,2.6886,2.6952,2.6963,2.6988,2.7009,2.7018,2.691,2.6897,2.6883,2.6862,2.7015,2.7015,2.7125,2.7126,2.7127]},{"header":{"parameterUnit":"m.s-1","parameterCategory":1,"la1":30.2991,"la2":30.254,"lo1":-89.0895,"lo2":-89.0444,"dy":0.0017,"dx":0.0017,"nx":28,"ny":28,"refTime":"2023-10-05T09:00:00:Z","depth":0,"parameterNumber":3,"parameterNumberName":"V-component_of_WINDS"},"data":[0,0,0,0,0,0,0,0,0,0,0,0,0,0,0,0,0,0,0,0,0,0,0,0,0,0,0,0,0,0,0,0,0,0,0,0,0,0,0,0,0,0,0,0,0,0,0,0,0,0,0,0,0,0,0,0,0,0,-0.0692,-0.069,0,-0.0508,-0.0506,-0.0503,-0.0561,-0.0565,-0.0569,-0.0572,-0.0375,-0.0366,-0.0357,0,0,0,0,0,0,0,0,0,0,0,0,0,-0.109,-0.1082,-0.0692,-0.069,-0.0688,-0.0508,-0.0505,-0.0503,-0.056,-0.0565,-0.057,-0.0574,-0.0378,-0.0367,-0.0356,0,0,0,0,0,0,0,0,0,0,0,0,0,-0.0912,-0.1079,-0.0693,-0.0695,-0.0693,-0.0508,-0.0505,-0.0502,-0.0559,-0.0565,-0.0571,-0.0576,-0.0381,-0.0368,-0.0355,-0.0154,0,0,-0.0314,-0.0308,0,0,0,0,0,0,0,0,-0.0922,-0.0897,-0.0697,-0.0694,-0.0692,-0.0563,-0.0573,-0.0385,-0.0558,-0.061,-0.0572,-0.0579,-0.0432,-0.0415,-0.0367,-0.0145,-0.0137,-0.0313,-0.0305,-0.0299,-0.0295,0,0,0,0,0,0,0,-0.0934,-0.0905,-0.0619,-0.0694,-0.0691,-0.0703,-0.0685,-0.0538,-0.049,-0.0605,-0.0609,-0.0587,-0.0432,-0.038,-0.0363,-0.0134,-0.0313,-0.0301,-0.0293,-0.0288,0.0256,0.0263,0,0,0,0,0,0,-0.0949,-0.0915,-0.0625,-0.0613,-0.0824,-0.0692,-0.0671,-0.0599,-0.0492,-0.0481,-0.0582,-0.059,-0.04,-0.0378,-0.0356,-0.0118,-0.0299,-0.0286,-0.0279,0.025,0.0258,0.0265,0,0,0,0,0,0,-0.0957,-0.0922,-0.0632,-0.0765,-0.073,-0.0678,-0.0597,-0.0592,-0.054,-0.0474,-0.0465,-0.0538,-0.0404,-0.0375,-0.0206,-0.0111,-0.028,-0.0268,0.0242,0.0252,0.0261,0.0363,0,0,0,0,0,0,-0.0968,-0.0925,-0.0849,-0.0763,-0.0722,-0.0486,-0.0591,-0.0584,-0.0518,-0.0527,-0.043,-0.042,-0.0406,-0.0226,-0.0193,-0.0096,-0.0258,0.0234,0.0247,0.0258,0.0352,0.0375,0.0395,0,0,0,0,0,-0.0982,-0.0824,-0.0845,-0.0809,-0.0626,-0.048,-0.0456,-0.0446,-0.051,-0.0433,-0.0392,-0.0423,-0.0128,-0.0208,-0.0171,-0.0069,0.0228,0.0243,0.0257,0.0342,0.037,0.0394,0,0,0,0,0,0,-0.0895,-0.0813,-0.0834,-0.0645,-0.057,-0.049,-0.0392,-0.0415,-0.0318,-0.033,-0.0319,-0.0297,-0.0124,-0.008,-0.0171,0.0128,0.0041,0.0064,0.0093,0.0121,0.0142,0.0128,-0.0247,0,0,0,0,0,-0.0855,-0.0746,-0.0679,-0.0518,-0.0479,-0.0443,-0.0378,-0.0378,-0.0298,-0.0265,-0.0211,-0.0131,-0.0021,0.0052,0.0158,0.0357,0.0376,0.0445,0.0466,0.0484,0.0504,0.0608,0.0639,0.0312,0.0312,0.0312,0,0,-0.0768,-0.071,-0.0641,-0.0499,-0.0441,-0.0327,-0.0415,-0.0289,-0.0204,-0.0245,-0.0084,-0.0042,0.0048,0.0231,0.0315,0.0274,0.0597,0.0502,0.0516,0.0526,0.0626,0.0657,0.0685,0.0322,0.032,0.0319,0,0,-0.0554,-0.0498,-0.036,-0.0301,-0.0214,-0.0192,-0.0159,-0.0077,-0.0052,0.0109,0.0079,0.0181,0.0372,0.0436,0.0493,0.0726,0.0699,0.076,0.0874,0.0976,0.1002,0.1025,0.1106,0.1135,0.0779,0.0779,0.0779,0,-0.0456,-0.0288,-0.0285,-0.0159,-0.0096,-0.0133,0.0006,0.0064,0.0183,0.0228,0.0178,0.0413,0.0472,0.0667,0.0723,0.0772,0.0809,0.075,0.0997,0.102,0.1042,0.1119,0.115,0.0786,0.0785,0.0784,0.0784,0,-0.0174,-0.0057,0.0045,0.0155,0.0229,0.0362,0.0385,0.0459,0.0452,0.048,0.0642,0.071,0.0826,0.0873,0.087,0.1068,0.1038,0.0994,0.0907,0.108,0.1152,0.1182,0.0795,0.0793,0.0791,0.0789,0,0,0.0106,0.0211,0.0248,0.0296,0.0386,0.0478,0.0608,0.0717,0.078,0.0862,0.0971,0.113,0.1087,0.1152,0.1155,0.1244,0.142,0.1188,0.119,0.1227,0.164,0.1673,0.1707,0.1402,0.1408,0.1412,0.1631,0,0.0327,0.0552,0.0556,0.0764,0.087,0.0834,0.0946,0.1015,0.1043,0.1138,0.117,0.1281,0.1217,0.1255,0.1342,0.138,0.1503,0.1365,0.1504,0.1509,0.1483,0.1746,0.1783,0.1986,0.166,0.1665,0.1669,0,0.0617,0.0703,0.092,0.099,0.1035,0.1136,0.1234,0.1326,0.1402,0.1415,0.1485,0.1472,0.1604,0.1511,0.1693,0.1598,0.1655,0.1682,0.169,0.1704,0.16,0.1766,0.2052,0.2082,0.1714,0.171,0.1707,0,0.0797,0.0967,0.1117,0.1159,0.1246,0.1317,0.1357,0.1426,0.149,0.1577,0.1618,0.172,0.1776,0.1856,0.1871,0.1802,0.2052,0.1961,0.2067,0.2067,0.2123,0.2119,0.2421,0.2159,0.2159,0.2158,0.2158,0,0.1044,0.1178,0.1198,0.1291,0.1439,0.1441,0.1588,0.1622,0.1683,0.1782,0.1757,0.1851,0.1865,0.1962,0.1974,0.2121,0.2147,0.2162,0.2164,0.2165,0.2163,0.2203,0.2189,0.2166,0.2165,0.2163,0.2162,0,0.1271,0.129,0.1451,0.1517,0.1537,0.1643,0.17,0.1789,0.1811,0.1937,0.1966,0.2003,0.2115,0.2137,0.2271,0.2279,0.2453,0.2442,0.2427,0.2426,0.253,0.252,0.2869,0.2914,0.2623,0.2626,0.2628,0,0.1428,0.1529,0.1604,0.1666,0.1708,0.1811,0.1874,0.1879,0.1946,0.2036,0.2114,0.2222,0.2309,0.249,0.253,0.2631,0.2621,0.2735,0.2636,0.2632,0.2621,0.2615,0.2624,0.2755,0.2759,0.2761,0.2763,0,0.1703,0.1706,0.1797,0.1891,0.1966,0.2041,0.2112,0.2165,0.2179,0.2256,0.2368,0.2435,0.2568,0.2676,0.2775,0.2817,0.2793,0.2793,0.2823,0.2825,0.2812,0.2819,0.2479,0.2786,0.2784,0.2782,0.2781,0.278,0.19,0.1986,0.2051,0.2152,0.2204,0.227,0.2355,0.2385,0.2478,0.2585,0.2582,0.2704,0.2773,0.2903,0.2951,0.3047,0.3011,0.3054,0.3065,0.3076,0.3085,0.2795,0.3065,0.3064,0.3064,0.3063,0.3063,0,0.2173,0.2211,0.2304,0.2401,0.248,0.2445,0.252,0.259,0.2696,0.2761,0.2845,0.2972,0.3075,0.312,0.322,0.3288,0.3279,0.3315,0.331,0.332,0.3112,0.3076,0.332,0.332,0.332,0.332,0.332,0.3319,0.2324,0.2467,0.2477,0.2645,0.2683,0.28,0.2845,0.2905,0.2956,0.3098,0.3181,0.3208,0.3265,0.3368,0.346,0.3471,0.3509,0.3549,0.3555,0.3361,0.3335,0.331,0.3276,0.3558,0.3558,0.3754,0.3756,0.3757]}]]